| time (UTC) | temp C | wind direction | speed KPH | gust KPH | rain 1hr cm | rain 24hr cm | rain mn cm | humidity % | barometer mb |
| 20260503193103 | 17 | 234 | 4.8 | 19.3 | 0.00 | 0.00 | 0.00 | 65 | 1012.7 |
| 20260503191604 | 17 | 275 | 3.2 | 22.5 | 0.00 | 0.00 | 0.00 | 64 | 1012.8 |
| 20260503190052 | 17 | 119 | 4.8 | 17.7 | 0.00 | 0.00 | 0.00 | 65 | 1012.7 |
| 20260503184559 | 17 | 228 | 4.8 | 19.3 | 0.00 | 0.00 | 0.00 | 66 | 1012.7 |
| 20260503183046 | 16 | 325 | 4.8 | 17.7 | 0.00 | 0.00 | 0.00 | 68 | 1012.8 |
| 20260503181607 | 17 | 246 | 3.2 | 17.7 | 0.00 | 0.00 | 0.00 | 66 | 1012.9 |
| 20260503180051 | 16 | 303 | 4.8 | 17.7 | 0.00 | 0.00 | 0.00 | 67 | 1012.9 |
| 20260503174545 | 16 | 193 | 1.6 | 17.7 | 0.00 | 0.00 | 0.00 | 69 | 1012.8 |
| 20260503173043 | 15 | 219 | 1.6 | 16.1 | 0.00 | 0.00 | 0.00 | 71 | 1012.9 |
| 20260503171528 | 15 | 193 | 4.8 | 17.7 | 0.00 | 0.00 | 0.00 | 75 | 1013.0 |
| 20260503081542 | 12 | 263 | 1.6 | 6.4 | 0.00 | 0.00 | 0.00 | 83 | 1012.0 |
| 20260503071536 | 12 | 244 | 0.0 | 3.2 | 0.00 | 0.00 | 0.00 | 82 | 1012.0 |
| 20260503054528 | 12 | 242 | 0.0 | 1.6 | 0.00 | 0.00 | 0.00 | 82 | 1012.3 |
| 20260503053027 | 12 | 333 | 0.0 | 1.6 | 0.00 | 0.00 | 0.00 | 81 | 1012.3 |
| 20260503051534 | 12 | 344 | 0.0 | 4.8 | 0.00 | 0.00 | 0.00 | 81 | 1012.4 |
| 20260503050025 | 13 | 271 | 0.0 | 8.0 | 0.00 | 0.00 | 0.00 | 80 | 1012.4 |
| 20260503044527 | 13 | 319 | 0.0 | 6.4 | 0.00 | 0.00 | 0.00 | 80 | 1012.3 |
| 20260503043024 | 13 | 336 | 0.0 | 11.3 | 0.00 | 0.00 | 0.00 | 79 | 1012.2 |
| 20260503041524 | 13 | 300 | 1.6 | 6.4 | 0.00 | 0.00 | 0.00 | 79 | 1012.0 |
| 20260503040023 | 13 | 305 | 0.0 | 14.5 | 0.00 | 0.00 | 0.00 | 79 | 1011.8 |
| 20260503034522 | 13 | 300 | 0.0 | 6.4 | 0.00 | 0.00 | 0.00 | 78 | 1011.7 |
| 20260503033033 | 13 | 317 | 0.0 | 4.8 | 0.00 | 0.00 | 0.00 | 78 | 1011.5 |
| 20260503031521 | 14 | 269 | 0.0 | 4.8 | 0.00 | 0.00 | 0.00 | 77 | 1011.4 |
| 20260503030040 | 14 | 5 | 0.0 | 3.2 | 0.00 | 0.00 | 0.00 | 76 | 1011.2 |
| 20260503024529 | 15 | 262 | 0.0 | 3.2 | 0.00 | 0.00 | 0.00 | 76 | 1010.9 |
| 20260503023019 | 15 | 241 | 0.0 | 4.8 | 0.00 | 0.00 | 0.00 | 76 | 1010.8 |
| 20260503021525 | 15 | 274 | 0.0 | 6.4 | 0.00 | 0.00 | 0.00 | 75 | 1010.7 |
| 20260503020007 | 15 | 294 | 1.6 | 9.7 | 0.00 | 0.00 | 0.00 | 74 | 1010.7 |
| 20260503014506 | 16 | 229 | 0.0 | 11.3 | 0.00 | 0.00 | 0.00 | 74 | 1010.8 |
| 20260503013006 | 16 | 278 | 0.0 | 11.3 | 0.00 | 0.00 | 0.00 | 73 | 1010.7 |
| 20260503011605 | 17 | 278 | 1.6 | 14.5 | 0.00 | 0.00 | 0.00 | 72 | 1010.7 |
| 20260503010004 | 17 | 211 | 0.0 | 12.9 | 0.00 | 0.00 | 0.00 | 71 | 1010.7 |
| 20260503004503 | 17 | 266 | 3.2 | 16.1 | 0.00 | 0.00 | 0.00 | 70 | 1010.7 |
| 20260503003002 | 17 | 278 | 3.2 | 16.1 | 0.00 | 0.00 | 0.00 | 69 | 1010.7 |
| 20260503001501 | 17 | 277 | 4.8 | 16.1 | 0.00 | 0.00 | 0.00 | 70 | 1010.9 |
| 20260503000100 | 17 | 286 | 1.6 | 12.9 | 0.00 | 0.00 | 0.00 | 70 | 1010.8 |
| 20260502234559 | 17 | 261 | 3.2 | 14.5 | 0.00 | 0.00 | 0.00 | 70 | 1010.9 |
| 20260502233058 | 18 | 255 | 1.6 | 12.9 | 0.00 | 0.00 | 0.00 | 69 | 1011.0 |
| 20260502231605 | 18 | 268 | 1.6 | 17.7 | 0.00 | 0.00 | 0.00 | 69 | 1011.1 |
| 20260502230054 | 18 | 302 | 1.6 | 9.7 | 0.00 | 0.00 | 0.00 | 70 | 1011.3 |
| 20260502224552 | 18 | 291 | 3.2 | 9.7 | 0.00 | 0.00 | 0.00 | 70 | 1011.5 |
| 20260502223050 | 18 | 207 | 3.2 | 14.5 | 0.00 | 0.00 | 0.00 | 68 | 1011.7 |
| 20260502221549 | 18 | 226 | 4.8 | 19.3 | 0.00 | 0.00 | 0.00 | 68 | 1012.1 |
| 20260502220046 | 18 | 271 | 1.6 | 14.5 | 0.00 | 0.00 | 0.00 | 70 | 1012.1 |
| 20260502214552 | 18 | 248 | 1.6 | 9.7 | 0.00 | 0.00 | 0.00 | 69 | 1012.3 |
| 20260502213046 | 19 | 15 | 3.2 | 14.5 | 0.00 | 0.00 | 0.00 | 68 | 1012.3 |
| 20260502211542 | 18 | 230 | 1.6 | 12.9 | 0.00 | 0.00 | 0.00 | 69 | 1012.6 |
| 20260502210037 | 18 | 271 | 3.2 | 14.5 | 0.00 | 0.00 | 0.00 | 68 | 1012.8 |
| 20260502204534 | 18 | 212 | 6.4 | 16.1 | 0.00 | 0.00 | 0.00 | 70 | 1013.0 |
| 20260502203031 | 17 | 205 | 1.6 | 19.3 | 0.00 | 0.00 | 0.00 | 73 | 1013.2 |
| 20260502201531 | 17 | 219 | 4.8 | 17.7 | 0.00 | 0.00 | 0.00 | 73 | 1013.4 |
| 20260502200023 | 16 | 212 | 0.0 | 12.9 | 0.00 | 0.00 | 0.00 | 77 | 1013.6 |
| 20260502194522 | 16 | 217 | 4.8 | 27.4 | 0.00 | 0.00 | 0.00 | 76 | 1013.7 |